Gwinn, MI

6:44 AM EDT on August 23, 2017 (GMT -0400)
Sawyer International

Weather History for KSAW - November, 2011

Change the Weather History Date:

Sunday, November 6, 2011

  Actual Average (KESC) Record (KESC)
Temperature  
Mean Temperature 47 °F -  
Max Temperature 53 °F 42 °F 61 °F (2016)
Min Temperature 41 °F 27 °F 5 °F (1985)
Degree Days  
Heating Degree Days 18    
Moisture  
Dew Point 38 °F    
Average Humidity 74    
Maximum Humidity 87    
Minimum Humidity 54    
Precipitation  
Precipitation 0.00 in - - ()
Sea Level Pressure  
Sea Level Pressure 29.85 in    
Wind  
Wind Speed 17 mph (SSW)    
Max Wind Speed 26 mph    
Max Gust Speed 34 mph    
Visibility 10 miles    
Events      
Averages and records for this station are not official NWS values.
T = Trace of Precipitation, MM = Missing Value Source: NWS Daily Summary

Daily Weather History Graph

Daily Weather History Graph

Search for Another Location

Airport or City:

Trip Planner

Search our weather history database for the weather conditions in past years. The results will help you decide how hot, cold, wet, or windy it might be!

Date:

Astronomy

Nov. 06, 2011 Rise Set
Actual Time 7:37 AM EST 5:28 PM EST
Civil Twilight 7:05 AM EST 5:59 PM EST
Nautical Twilight 6:30 AM EST 6:35 PM EST
Astronomical Twilight 5:54 AM EST 7:10 PM EST
Moon 3:21 PM EST (11/6) 3:32 AM EST (11/6)
Length of Visible Light 10h 54m
Length of Day
9h 50m
Waxing Gibbous, 85% of the Moon is Illuminated
Nov 6
Waxing Gibbous
Nov 10
Full
Nov 18
Last Quarter
Nov 25
New
Dec 2
First Quarter

Hourly Weather History & Observations

Time (EST) Temp. Windchill Dew Point Humidity Pressure Visibility Wind Dir Wind Speed Gust Speed Precip Events Conditions
12:17 AM 41.0 °F 32.8 °F 37.4 °F 87% 29.95 in 10.0 mi South 16.1 mph 23.0 mph N/A   Clear
12:37 AM 41.0 °F 32.5 °F 37.4 °F 87% 29.95 in 10.0 mi SSW 17.3 mph 21.9 mph N/A   Clear
12:57 AM 41.0 °F 32.8 °F 37.4 °F 87% 29.94 in 10.0 mi South 16.1 mph - N/A   Clear
1:17 AM 41.0 °F 32.8 °F 35.6 °F 81% 29.94 in 10.0 mi South 16.1 mph - N/A   Clear
1:37 AM 41.0 °F 33.1 °F 35.6 °F 81% 29.94 in 10.0 mi SSW 15.0 mph - N/A   Clear
1:57 AM 41.0 °F 32.8 °F 35.6 °F 81% 29.94 in 10.0 mi South 16.1 mph - N/A   Clear
1:17 AM 42.8 °F 35.8 °F 35.6 °F 76% 29.93 in 10.0 mi South 13.8 mph - N/A   Clear
1:37 AM 42.8 °F 35.8 °F 35.6 °F 76% 29.93 in 10.0 mi SSW 13.8 mph - N/A   Clear
1:57 AM 42.8 °F 35.1 °F 35.6 °F 76% 29.93 in 10.0 mi South 16.1 mph - N/A   Clear
2:17 AM 42.8 °F 34.8 °F 35.6 °F 76% 29.92 in 10.0 mi South 17.3 mph 26.5 mph N/A   Clear
2:37 AM 42.8 °F 34.5 °F 35.6 °F 76% 29.92 in 10.0 mi South 18.4 mph - N/A   Clear
2:56 AM 42.8 °F 34.8 °F 35.6 °F 76% 29.91 in 10.0 mi South 17.3 mph 27.6 mph N/A   Clear
3:17 AM 42.8 °F 34.8 °F 35.6 °F 76% 29.91 in 10.0 mi South 17.3 mph 25.3 mph N/A   Clear
3:37 AM 42.8 °F 34.5 °F 35.6 °F 76% 29.90 in 10.0 mi South 18.4 mph 24.2 mph N/A   Clear
3:57 AM 42.8 °F 34.8 °F 35.6 °F 76% 29.89 in 10.0 mi South 17.3 mph 24.2 mph N/A   Clear
4:17 AM 44.6 °F 37.2 °F 35.6 °F 71% 29.89 in 10.0 mi South 17.3 mph - N/A   Clear
4:37 AM 44.6 °F 36.9 °F 37.4 °F 76% 29.89 in 10.0 mi South 18.4 mph 25.3 mph N/A   Clear
4:57 AM 44.6 °F 37.2 °F 37.4 °F 76% 29.88 in 10.0 mi South 17.3 mph 20.7 mph N/A   Clear
5:17 AM 44.6 °F 37.2 °F 37.4 °F 76% 29.88 in 10.0 mi South 17.3 mph - N/A   Clear
5:37 AM 44.6 °F 37.4 °F 37.4 °F 76% 29.88 in 10.0 mi South 16.1 mph - N/A   Clear
5:57 AM 44.6 °F 37.4 °F 37.4 °F 76% 29.88 in 10.0 mi South 16.1 mph 23.0 mph N/A   Clear
6:50 AM 44.6 °F 37.2 °F 37.4 °F 76% 29.86 in 10.0 mi South 17.3 mph 23.0 mph N/A   Clear
7:50 AM 44.6 °F 38.1 °F 37.4 °F 76% 29.84 in 10.0 mi South 13.8 mph 19.6 mph N/A   Clear
8:50 AM 44.6 °F 37.4 °F 39.2 °F 81% 29.84 in 10.0 mi South 16.1 mph 21.9 mph N/A   Clear
9:50 AM 46.4 °F 39.5 °F 37.4 °F 71% 29.81 in 10.0 mi South 17.3 mph 26.5 mph N/A   Clear
10:50 AM 50.0 °F - 39.2 °F 66% 29.79 in 10.0 mi SSW 20.7 mph 27.6 mph N/A   Overcast
11:50 AM 51.8 °F - 41.0 °F 67% 29.77 in 10.0 mi South 20.7 mph 31.1 mph N/A   Scattered Clouds
12:55 PM 53.6 °F - 41.0 °F 62% 29.74 in 10.0 mi South 26.5 mph 34.5 mph N/A   Scattered Clouds
1:50 PM 53.6 °F - 42.8 °F 67% 29.72 in 10.0 mi SSW 20.7 mph 29.9 mph N/A   Overcast
2:55 PM 53.6 °F - 42.8 °F 67% 29.70 in 10.0 mi SSW 23.0 mph 31.1 mph N/A   Mostly Cloudy
3:50 PM 53.6 °F - 42.8 °F 67% 29.72 in 10.0 mi SSW 17.3 mph 28.8 mph N/A   Overcast
4:50 PM 53.6 °F - 42.8 °F 67% 29.73 in 10.0 mi South 19.6 mph 24.2 mph N/A   Overcast
5:50 PM 51.8 °F - 42.8 °F 71% 29.73 in 10.0 mi SSW 16.1 mph 26.5 mph N/A   Mostly Cloudy
6:50 PM 51.8 °F - 42.8 °F 71% 29.75 in 10.0 mi South 16.1 mph 23.0 mph N/A   Mostly Cloudy
7:50 PM 51.8 °F - 44.6 °F 76% 29.76 in 10.0 mi South 17.3 mph 23.0 mph N/A   Mostly Cloudy
8:50 PM 51.8 °F - 44.6 °F 76% 29.77 in 10.0 mi SSW 16.1 mph 23.0 mph N/A   Scattered Clouds
9:50 PM 51.8 °F - 44.6 °F 76% 29.79 in 10.0 mi SSW 15.0 mph 20.7 mph N/A   Clear
10:17 PM 51.8 °F - 41.0 °F 67% 29.80 in 10.0 mi SW 13.8 mph 23.0 mph N/A   Scattered Clouds
10:37 PM 50.0 °F - 35.6 °F 58% 29.82 in 10.0 mi WSW 13.8 mph - N/A   Scattered Clouds
10:57 PM 50.0 °F - 33.8 °F 54% 29.83 in 10.0 mi WSW 25.3 mph 32.2 mph N/A   Scattered Clouds